• Join FlightAware (Why Join?)
  • Login
  • US Flag GB Flag 
18:28 EST


 

Airport Tracker/Info


-or-


 

Live Flight TrackerFlight Track Log ✈ RPA3392 ✈ 12-May-2013 ✈ KDCA - KALB

Flight Track Log - Related Links

Times and Time Zones

All times are in EDT time to prevent confusion due to time zone crossing. See the RPA3392 flight status page for this flight to view local times or setup timezone preferences in your user account.

Time Position Orientation Groundspeed Altitude Reporting Facility
EDT Latitude Longitude Course Direction KTS MPH feet Rate Location/Type
22:40 38.9042 -77.0881 43° Northeast 169 194 3,400  Level Washington Center
22:41 38.9472 -77.1369 319° Northwest 182 209 6,400 2,975 Climbing Washington Center
22:42 39.1561 -76.1559 83° East  Level FlightAware Approximate
22:42 39.0094 -77.1622 342° North 207 238 9,400  Level Washington Center
22:43 39.1819 -75.9114 81° East  Level FlightAware Approximate
22:43 39.0400 -77.0561 70° East 187 215 12,100  Level Washington Center
22:44 39.2933 -75.7234 38° Northeast  Level FlightAware Approximate
22:44 39.0561 -76.9281 81° East 267 307 14,800  Level Washington Center
22:45 39.4291 -75.5514 43° Northeast  Level FlightAware Approximate
22:45 39.0742 -76.8000 80° East 314 361 17,300  Level Washington Center
22:46 39.0919 -76.6639 80° East 359 413 19,500 2,182 Climbing Washington Center
22:47 39.0975 -76.5197 87° East 385 443 21,700 1,765 Climbing Washington Center
22:48 39.0900 -76.3725 94° East 396 456 23,000 655 Climbing Washington Center
22:49 39.0908 -76.2200 90° East 410 472 23,000 244 Level Washington Center
22:50 39.1481 -76.0386 68° East 441 507 23,500 893 Climbing Washington Center
22:51 39.2047 -75.8700 67° East 489 563 24,800 1,400 Climbing Washington Center
22:52 39.3031 -75.7392 46° Northeast 488 562 26,300 1,462 Climbing Washington Center
22:53 39.4072 -75.6050 45° Northeast 502 578 27,700 1,373 Climbing Washington Center
22:54 39.5050 -75.4786 45° Northeast 502 578 29,000 650 Climbing Washington Center
22:55 39.5986 -75.3544 46° Northeast 492 566 29,000  Level Washington Center
22:56 39.6922 -75.2247 47° Northeast 487 560 29,000  Level Washington Center
22:57 39.8061 -75.0647 47° Northeast 505 581 29,000  Level New York Center
22:58 39.8897 -74.9453 48° Northeast 505 581 29,000  Level New York Center
22:59 39.9925 -74.8053 46° Northeast 493 567 29,000  Level New York Center
23:00 40.0825 -74.6719 49° Northeast 493 567 29,000  Level New York Center
23:01 40.1764 -74.5414 47° Northeast 488 562 29,000  Level New York Center
23:02 40.2653 -74.4294 44° Northeast 488 562 29,000 -508 Level New York Center
23:03 40.3686 -74.3178 39° Northeast 477 549 28,000 -1,017 Descending New York Center
23:05 40.5731 -74.0986 39° Northeast 476 548 26,000 -989 Descending Boston Center
23:06 40.6747 -73.9889 39° Northeast 476 548 25,100 -950 Descending Boston Center
23:07 40.7719 -73.8844 39° Northeast 470 541 24,100 -550 Descending Boston Center
23:08 40.8669 -73.7739 41° Northeast 458 527 24,000 -400 Descending Boston Center
23:09 40.9600 -73.6575 43° Northeast 453 521 23,300 -500 Descending Boston Center
23:10 41.0708 -73.6156 16° North 412 474 23,000 -600 Descending Boston Center
23:11 41.1853 -73.6317 354° North 395 455 22,100 -950 Descending Boston Center
23:12 41.2894 -73.6444 355° North 384 442 21,100 -1,000 Descending Boston Center
23:13 41.3914 -73.6547 356° North 379 436 20,100 -1,300 Descending Boston Center
23:14 41.4956 -73.6650 356° North 353 406 18,500 -1,750 Descending Boston Center
23:15 41.5872 -73.6753 355° North 330 380 16,600 -1,736 Descending Boston Center
23:16 41.6767 -73.6825 357° North 325 374 15,000 -1,050 Descending Boston Center
23:17 41.7578 -73.6953 353° North 313 360 14,500 -555 Descending Boston Center
23:18 41.8347 -73.7022 356° North 283 326 13,900 -550 Descending Boston Center
23:19 41.9097 -73.7122 354° North 276 318 13,400 -600 Descending Boston Center
23:20 41.9867 -73.7192 356° North 269 310 12,700 -563 Descending Boston Center
23:21 42.0347 -73.7231 357° North 276 318 12,500 -600 Descending Boston Center
23:21 42.0639 -73.7264 355° North 277 319 12,100 -1,164 Descending Boston Center
23:22 42.1158 -73.7331 355° North 274 315 11,200 -1,000 Descending Boston Center
23:22 42.1306 -73.7333 359° North 272 313 11,100 -590 Descending Boston Center
23:23 42.1867 -73.7431 353° North 258 297 10,600 -1,000 Descending Boston Center
23:23 42.2075 -73.7406 North 261 300 10,100 -1,300 Descending Boston Center
23:24 42.2553 -73.7472 354° North 248 285 9,300 -1,100 Descending Boston Center
23:24 42.2700 -73.7475 359° North 250 288 9,000 -1,672 Descending Boston Center
23:25 42.3261 -73.7600 351° North 233 268 7,600 -1,700 Descending Boston Center
23:25 42.3386 -73.7544 18° North 236 272 7,300 -1,082 Descending Boston Center
23:26 42.3864 -73.7669 349° North 220 253 6,500 -1,019 Descending Boston Center
23:27 42.4425 -73.7736 355° North 209 241 5,500 -945 Descending Boston Center
23:28 42.5031 -73.7833 353° North 198 228 4,500 -891 Descending Boston Center
23:29 42.5611 -73.7903 355° North 191 220 3,600 -843 Descending Boston Center
23:30 42.6069 -73.7997 351° North 169 194 2,800 -571 Descending Boston Center
23:31 42.6547 -73.8036 357° North 179 206 2,400 -364 Descending Boston Center